Location: Unspecified
(0.0000°N, 0.0000°E)
Time: 11:35:31
(UTC+00:00)

CZ-3C DEB - Pass Details

Date: 22 February 2026
Orbit: 380 x 28980 km, 20.3° (Epoch: 21 March)

Event Time Altitude Azimuth Distance (km) Brightness Sun altitude
Rises 03:06:10 0° 290° (WNW) 15,432 ? -45.9°
Enters shadow 03:07:20 - 289° (WNW) 15,130 ? -45.6°
Exits shadow 03:49:16 33° 145° (SE) 1,404 ? -35.4°
Drops below altitude 10° 03:51:09 10° 129° (SE) 2,036 ? -34.9°
Sets 03:52:31 0° 123° (ESE) 2,643 ? -34.6°
